This is the latest recevied weather packets stored in our database for station/object SP2WPY-13. If no packets are shown the sender has not sent any weather packets the latest 1 day(s).
| Time | Temp. | Humidity | Pressure | Rain* | Wind** | Luminosity | Snow |
|---|---|---|---|---|---|---|---|
| 1777971691 | 18.89° C | 36% | 1013.2 hPa | - | 1.79 m/s, 83° | - | - |
| 1777971372 | 18.89° C | 38% | 1013.2 hPa | - | 1.34 m/s, 104° | - | - |
| 1777971098 | 18.89° C | 36% | 1013.3 hPa | - | 1.34 m/s, 111° | - | - |
| 1777970779 | 18.33° C | 38% | 1013.3 hPa | - | 0.89 m/s, 148° | - | - |
| 1777970516 | 18.33° C | 38% | 1013.3 hPa | - | 0.89 m/s, 170° | - | - |
| 1777970184 | 17.78° C | 37% | 1013.4 hPa | - | 1.79 m/s, 92° | - | - |
| 1777969866 | 17.78° C | 37% | 1013.4 hPa | - | 1.79 m/s, 157° | - | - |
| 1777969591 | 18.33° C | 38% | 1013.5 hPa | - | 1.79 m/s, 128° | - | - |
| 1777969271 | 17.78° C | 38% | 1013.5 hPa | - | 1.34 m/s, 69° | - | - |
| 1777968997 | 17.78° C | 38% | 1013.5 hPa | - | 1.34 m/s, 112° | - | - |
| 1777968677 | 17.78° C | 37% | 1013.6 hPa | - | 0.89 m/s, 78° | - | - |
| 1777968404 | 18.33° C | 38% | 1013.6 hPa | - | 1.34 m/s, 58° | - | - |
| 1777968084 | 18.89° C | 38% | 1013.5 hPa | - | 2.24 m/s, 111° | - | - |
| 1777967764 | 18.33° C | 38% | 1013.5 hPa | - | 0.89 m/s, 110° | - | - |
| 1777967490 | 18.89° C | 38% | 1013.5 hPa | - | 1.79 m/s, 98° | - | - |
| 1777967170 | 19.44° C | 38% | 1013.4 hPa | - | 0.89 m/s, 164° | - | - |
| 1777966897 | 19.44° C | 37% | 1013.4 hPa | - | 0.89 m/s, 35° | - | - |
| 1777966578 | 18.89° C | 39% | 1013.3 hPa | - | 0.89 m/s, 50° | - | - |
| 1777966303 | 18.33° C | 39% | 1013.4 hPa | - | 0.89 m/s, 57° | - | - |
| 1777965984 | 18.89° C | 35% | 1013.4 hPa | - | 0.89 m/s, 53° | - | - |
| 1777965663 | 19.44° C | 34% | 1013.4 hPa | - | 1.34 m/s, 100° | - | - |
| 1777965390 | 20.56° C | 33% | 1013.3 hPa | - | 1.34 m/s, 25° | - | - |
| 1777965071 | 20.56° C | 33% | 1013.3 hPa | - | 0.45 m/s, 268° | - | - |
| 1777964796 | 20° C | 36% | 1013.3 hPa | - | 0.45 m/s, 298° | - | - |
| 1777964477 | 20° C | 36% | 1013.4 hPa | - | 1.34 m/s, 27° | - | - |
* Rain since midnight (hover to see other rain measurements)
** Current wind speed in m/s (hover to see current wind gust speed)